Temperature
10 10 10 10 11 10 10 10 10 10 10 10 10 10 10 10 10 10 10 10 10 10 10 10 10 10 10 10 10 10 10 10 10 10 10 10 10 10 10 10 10 10 10
10 10 10 10 10 10 10 10 10 10 10 10 10 10 10 10 10 10 10 10 10 10 10 10 10 10 10 10 10 10 10 10 10 10 9 9 9 9 9 9 9 9 9
9 9 9 9 9 9 10 10 9 9 9 9 9 9 9 9 9 9 9 9 10 10 10 10 10 10 10 10 10 10 10 9 9 9 9 9 9 9 9 9 9 9 9
9 9 9 9 9 9 9 9 9 9 9 9 9 9 9 9 9 9 9 9 9 9 9 9 9 9 9 9 9 9 9 9 9 9 9 9 8 8 8 8 8 8 8
9 9 9 9 9 8 8 8 8 9 9 8 8 8 8 8 8 8 8 8 9 9 9 9 9 9 9 9 9 9 9 9 8 8 8 8 8 8 8 8 8 8 8
8 8 8 8 8 8 8 8 8 8 8 8 8 8 8 8 8 8 8 8 8 8 8 9 9 9 8 8 8 8 8 8 8 8 8 8 8 8 8 8 8 8 8
8 8 8 8 8 8 8 8 8 8 8 8 7 7 7 7 7 8 8 8 8 8 8 8 8 8 8 8 8 8 8 8 8 8 8 8 8 7 7 7 7 7 7
7 7 7 7 7 7 7 7 7 7 7 7 7 7 6 6 7 7 7 7 7 7 7 7 7 7 7 7 7 7 7 7 7 7 7 7 7 7 7 7 7 7 7
7 7 7 7 7 7 7 7 7 7 7 7 7 7 6 6 6 6 7 7 7 7 7 7 7 7 7 7 7 7 7 7 7 7 7 7 7 7 7 7 7 7 7
6 6 6 6 6 6 6 6 6 6 6 6 6 6 6 6 6 6 6 6 6 6 7 7 7 7 7 7 7 7 7 7 7 7 7 7 6 6 6 6 6 6 6
5 5 5 5 5 5 6 6 5 6 5 5 5 5 5 6 6 6 5 6 6 6 6 6 6 6 6 6 6 6 6 6 6 6 6 6 6 6 6 6 6 6 6
5 5 5 5 5 5 5 5 5 5 5 5 5 5 5 5 5 5 5 6 6 6 6 6 6 6 6 6 6 6 6 6 6 6 6 6 6 6 5 5 5 5 5
4 4 4 4 4 4 4 4 4 4 4 4 4 4 5 4 5 5 5 5 5 5 5 5 5 5 5 5 5 5 5 5 5 5 5 5 5 5 5 5 5 5 5
4 4 4 4 4 4 4 4 4 4 4 4 4 4 4 4 4 4 4 4 4 4 4 5 5 5 5 5 5 5 5 5 5 5 5 5 5 5 5 5 5 4 4
4 4 3 3 3 3 3 3 3 3 3 3 3 3 3 3 3 3 3 4 3 3 3 4 4 5 5 5 5 5 5 5 5 5 5 5 5 4 4 4 4 4 4
3 3 3 3 3 3 3 3 3 3 2 3 3 3 3 3 3 3 3 3 3 3 3 3 4 4 4 4 4 4 4 4 4 4 4 4 4 4 4 4 4 4 4
2 3 3 3 2 2 2 2 2 2 2 2 2 2 2 2 2 2 2 2 2 2 2 3 3 3 3 3 3 3 3 4 4 4 3 4 3 3 3 3 3 3 3
2 2 2 2 2 2 2 2 2 1 1 1 1 1 1 1 1 2 1 2 2 2 1 2 2 3 3 3 3 3 3 3 3 3 3 3 3 3 3 3 3 3 2
1 1 1 1 1 1 1 1 1 1 1 1 1 1 1 1 1 1 1 1 1 1 1 1 1 2 2 2 2 2 2 2 2 2 2 2 2 2 2 2 2 2 2
1 0 0 0 0 0 0 0 0 0 -0 0 0 0 0 0 0 0 0 0 0 0 0 0 0 1 1 1 1 1 1 2 2 2 2 2 2 2 2 2 2 2 1
-0 -0 -0 -0 -0 -0 -0 -0 -0 -1 -1 -1 -1 -1 -1 -1 -1 -1 -1 -1 -1 -1 -1 -1 -1 -0 -0 0 0 0 0 1 1 1 1 1 1 1 1 1 1 1 1
-1 -1 -1 -1 -1 -1 -1 -1 -1 -1 -1 -1 -1 -1 -1 -2 -2 -2 -2 -2 -2 -2 -2 -1 -1 -1 -1 -0 -0 -0 -0 -0 -0 0 0 1 1 1 1 1 1 0 0
-2 -2 -2 -2 -2 -2 -2 -2 -2 -2 -2 -2 -2 -2 -2 -2 -2 -3 -3 -3 -3 -3 -2 -2 -2 -2 -1 -1 -1 -1 -1 -1 -1 -0 -0 -0 -0 -0 0 0 -0 -0 -0
-2 -2 -2 -2 -3 -2 -3 -3 -3 -3 -3 -3 -3 -3 -3 -3 -3 -3 -3 -3 -3 -3 -3 -3 -3 -2 -2 -2 -2 -2 -1 -1 -1 -1 -1 -1 -1 -1 -0 -0 -0 -1 -1
-3 -3 -3 -3 -3 -3 -3 -3 -3 -3 -3 -3 -3 -3 -3 -3 -4 -4 -4 -4 -4 -3 -4 -3 -3 -3 -3 -3 -3 -3 -2 -2 -2 -2 -2 -2 -2 -1 -1 -1 -1 -1 -2
-4 -4 -4 -4 -4 -4 -4 -4 -4 -4 -4 -4 -4 -4 -4 -4 -4 -4 -4 -4 -4 -4 -4 -4 -4 -4 -4 -3 -3 -3 -3 -3 -3 -3 -2 -3 -2 -2 -3 -2 -2 -2 -2
Wind_Speed
4 4 4 4 5 5 4 4 5 6 6 6 7 7 7 8 9 9 8 9 9 9 9 10 10 10 9 9 9 9 8 8 8 8 9 9 9 9 9 9 10 10 10
5 4 4 4 4 4 4 5 5 5 5 5 6 6 7 7 8 9 8 8 8 9 8 9 8 9 8 8 8 8 7 6 6 7 7 8 8 8 8 8 8 8 8
5 5 4 3 3 4 5 5 5 5 4 4 4 5 6 6 7 7 8 7 7 7 7 7 7 7 7 7 7 7 6 6 5 5 6 6 6 7 6 6 6 6 6
6 5 3 3 4 4 4 4 3 2 3 2 2 3 4 5 6 6 7 7 7 6 6 6 6 7 7 6 6 6 6 5 5 4 4 5 5 5 5 5 5 5 4
6 5 4 4 4 3 3 3 2 2 2 2 2 2 3 3 3 5 6 6 6 6 6 5 6 6 6 5 5 5 5 5 4 4 4 4 4 4 4 4 4 4 3
5 5 4 4 4 3 2 2 2 2 2 2 2 2 1 2 3 3 4 5 5 6 6 5 5 4 4 4 4 4 4 4 4 3 3 3 3 3 3 4 3 3 3
5 5 3 3 3 3 2 3 2 3 2 2 2 1 1 1 1 1 3 3 4 4 4 5 5 4 3 4 3 3 4 4 3 3 3 3 3 2 2 3 3 3 2
5 4 4 3 3 2 3 3 3 2 2 2 2 2 0 1 1 1 1 2 2 3 3 3 4 4 4 3 3 3 2 3 3 2 2 2 2 3 3 1 2 3 2
5 4 4 4 3 3 3 3 3 2 3 1 1 2 2 2 1 1 1 1 1 2 2 2 3 4 4 4 4 4 3 2 3 2 2 1 1 2 1 1 1 2 2
5 5 5 4 4 3 3 3 2 1 3 3 1 1 1 2 2 1 1 1 2 2 3 2 3 4 5 5 4 3 3 3 3 3 3 2 2 2 2 1 1 1 1
5 5 6 5 4 3 3 3 2 2 2 3 2 1 0 0 1 2 2 2 2 3 3 4 4 4 6 6 5 4 4 4 4 4 4 4 3 3 3 3 2 2 2
3 4 5 5 4 4 4 4 3 3 3 3 2 2 2 1 2 1 2 2 2 3 3 4 5 5 6 6 6 6 5 5 5 5 5 5 4 4 4 3 3 3 3
4 5 4 4 4 4 4 4 3 3 3 3 3 3 2 2 1 1 1 1 2 2 2 3 5 6 6 6 6 7 7 7 6 7 7 7 6 5 5 4 4 5 5
5 5 5 4 5 5 5 5 4 4 3 3 4 3 2 2 2 2 2 1 1 2 3 4 3 6 6 6 7 8 8 8 8 8 8 8 7 6 6 6 6 6 6
4 5 5 5 4 4 5 5 4 4 4 4 4 4 3 3 2 2 2 2 3 3 4 4 3 4 6 7 8 8 8 8 9 10 9 9 8 8 8 8 8 7 7
5 6 6 6 5 5 4 4 4 4 4 4 4 4 3 3 2 2 3 3 3 4 4 3 3 2 5 6 9 9 9 10 11 11 10 10 10 10 10 10 9 9 8
5 6 6 6 6 6 6 5 5 5 5 5 4 5 5 4 3 3 3 3 3 3 5 4 3 2 4 5 6 8 9 9 10 12 12 12 11 11 11 10 10 10 10
5 5 6 6 6 6 6 6 7 6 7 7 6 5 6 5 5 4 3 4 4 4 4 5 3 3 4 6 6 6 7 9 10 12 13 13 13 12 12 12 11 11 11
4 4 5 6 7 7 7 7 7 7 7 7 7 7 7 6 6 4 4 4 4 4 4 4 4 3 3 4 4 5 6 7 9 11 12 13 13 13 13 13 12 12 12
4 5 5 6 6 7 7 7 7 7 7 7 7 7 7 7 7 6 6 5 4 4 4 4 4 3 3 3 4 5 5 5 6 8 11 12 13 14 14 14 13 13 13
4 4 5 5 5 6 7 8 8 8 8 7 7 7 7 8 9 8 6 6 5 5 4 5 4 3 4 3 5 4 5 4 6 6 6 8 9 10 12 14 15 14 14
3 4 4 5 5 5 8 10 9 8 8 8 8 7 7 8 9 10 11 10 8 7 6 6 5 5 6 5 4 4 4 4 5 5 5 6 7 7 10 12 14 14 14
3 4 4 5 6 7 9 10 10 7 7 7 8 7 6 6 8 6 8 10 10 11 10 8 7 7 6 5 5 5 6 6 6 3 4 6 5 7 10 13 15 15 16
3 4 4 5 5 6 8 9 9 6 6 7 7 7 7 7 7 7 6 7 7 7 9 8 8 7 6 5 6 6 6 5 4 4 5 5 5 5 6 10 14 15 15
3 3 3 4 4 5 8 9 8 5 5 6 6 7 7 7 9 9 7 7 7 7 9 11 11 10 10 10 7 4 4 4 5 4 3 3 3 3 4 6 10 12 13
3 3 3 3 4 5 7 8 8 4 5 5 5 6 9 9 10 11 8 8 8 7 5 6 7 9 9 9 10 6 5 5 4 4 3 3 3 2 3 3 5 7 9
Wind_Direction
104 96 100 103 102 103 99 90 85 82 75 68 73 75 77 84 89 91 94 98 100 105 108 107 105 104 105 106 105 104 103 102 103 102 101 99 96 92 90 91 87 84 79
113 110 100 91 98 102 99 96 89 86 81 81 75 75 76 84 93 95 93 95 102 109 111 113 112 109 103 103 104 104 106 112 111 110 109 107 105 100 96 92 89 86 83
116 114 114 101 95 110 110 104 94 92 86 79 72 74 77 80 92 95 98 97 100 109 116 114 114 114 110 108 111 110 107 108 113 118 118 116 114 111 106 100 94 94 89
123 116 117 114 102 107 118 118 111 97 88 77 72 69 78 78 83 93 98 101 105 108 116 116 114 113 112 111 112 116 114 105 106 112 120 127 125 121 117 111 106 103 99
132 125 121 121 120 120 119 120 110 111 106 91 80 73 69 77 84 95 93 98 108 114 115 118 119 119 118 117 114 116 118 112 109 114 120 120 130 133 131 133 131 120 110
132 125 125 129 133 131 120 117 119 106 109 105 86 70 68 80 82 91 100 97 99 111 117 121 121 126 135 133 129 125 125 117 117 126 128 131 127 145 155 144 143 150 141
138 130 127 140 143 136 138 132 118 122 115 105 92 64 22 64 78 109 113 111 108 114 121 123 126 132 141 154 155 148 145 143 141 128 129 145 153 154 165 174 170 155 143
143 147 137 148 150 137 131 128 126 129 139 140 131 124 121 306 292 218 140 150 146 131 139 141 141 144 151 151 160 164 161 167 168 159 143 144 170 191 186 167 192 177 178
150 150 144 147 150 145 153 152 156 153 167 204 177 151 161 201 211 252 225 192 176 173 172 162 160 162 159 165 175 178 177 185 194 199 193 189 186 167 148 107 153 195 213
162 158 155 159 161 158 162 175 169 170 169 187 233 269 213 153 158 196 266 240 222 217 203 188 189 184 174 166 176 195 202 198 212 224 230 231 240 230 225 248 241 235 271
172 171 167 168 171 172 171 173 177 173 182 192 195 218 277 324 169 175 215 229 244 240 220 203 204 197 187 179 183 198 219 220 224 232 236 240 252 257 248 249 254 256 266
180 183 184 179 180 180 181 185 190 189 193 198 201 187 181 186 191 187 206 221 236 236 233 211 203 198 191 190 196 202 217 224 227 233 240 247 255 262 254 252 256 261 270
192 197 198 194 191 192 189 185 188 199 202 205 208 211 208 216 204 195 194 224 234 247 223 228 212 199 196 195 204 211 217 225 230 236 243 246 249 255 252 250 259 264 266
202 197 203 203 203 197 197 194 197 204 207 209 214 211 220 221 209 199 192 196 246 250 225 231 227 203 201 202 213 214 221 229 232 238 241 241 242 247 250 248 251 255 257
203 195 199 202 203 200 200 198 203 206 205 208 213 214 218 220 220 216 204 196 195 220 237 227 217 214 211 214 218 219 222 233 238 240 239 239 239 244 246 244 244 251 253
201 196 199 201 200 201 204 203 209 210 209 215 212 214 224 223 217 213 212 220 222 223 238 229 224 225 209 221 223 222 225 235 237 237 237 239 239 240 242 242 242 248 248
203 200 201 199 201 202 203 205 214 210 212 219 218 215 223 223 219 218 218 222 226 225 243 260 257 223 210 218 228 227 228 230 235 236 238 240 241 241 239 238 241 243 245
209 205 202 202 206 207 207 210 216 215 213 216 219 219 225 223 223 221 220 228 232 228 233 253 261 241 230 219 216 218 229 232 235 238 239 240 241 240 236 236 239 239 242
211 212 207 208 211 211 212 216 217 219 219 219 218 217 221 219 225 226 225 228 234 241 237 243 253 251 246 231 223 230 231 233 239 237 239 238 239 238 236 236 239 238 240
209 211 212 215 216 217 217 220 219 222 226 226 224 220 219 219 223 223 226 227 230 237 241 244 250 251 247 235 219 224 240 232 238 238 239 240 242 241 238 236 236 238 240
222 218 217 222 224 223 222 219 220 223 224 226 227 223 223 226 228 227 229 224 222 227 237 242 248 249 243 227 226 222 240 244 246 228 224 234 238 237 237 236 236 237 239
227 223 223 225 229 237 241 235 229 223 224 224 225 224 225 227 232 237 239 236 230 227 230 235 245 245 242 236 232 234 241 254 254 218 220 240 226 230 234 235 235 236 238
230 229 231 230 233 240 244 242 241 232 227 228 224 219 226 228 229 230 241 244 240 239 235 233 241 246 247 236 227 232 233 240 253 244 227 248 228 235 237 238 236 236 237
238 236 237 236 238 248 250 246 246 237 234 232 226 220 219 221 224 225 229 238 240 241 240 237 240 244 248 243 232 233 239 249 269 252 214 246 245 244 243 240 235 235 236
249 255 252 242 245 258 258 253 247 233 237 236 231 224 221 220 230 228 224 232 242 246 246 244 248 251 252 254 248 239 234 238 258 254 213 226 249 263 251 238 234 234 237
255 263 275 268 258 260 266 260 251 233 236 240 236 229 231 231 232 227 222 226 237 240 241 251 252 253 251 250 244 233 228 234 249 252 218 216 238 249 266 243 220 230 237
Height
1535 1536 1538 1539 1540 1542 1543 1544 1545 1546 1548 1549 1550 1552 1553 1554 1554 1555 1556 1558 1559 1561 1562 1563 1563 1564 1565 1566 1567 1567 1568 1568 1569 1570 1570 1570 1571 1571 1571 1572 1572 1572 1572
1534 1535 1536 1538 1539 1540 1542 1543 1544 1545 1547 1548 1549 1551 1552 1553 1553 1554 1556 1557 1558 1559 1561 1562 1563 1564 1564 1565 1566 1567 1567 1568 1568 1569 1569 1570 1570 1570 1571 1571 1571 1572 1572
1532 1533 1534 1536 1537 1539 1540 1541 1543 1544 1545 1546 1548 1549 1550 1551 1552 1553 1555 1556 1557 1558 1560 1561 1562 1563 1564 1565 1565 1566 1566 1567 1567 1568 1569 1569 1569 1570 1570 1570 1571 1571 1571
1530 1532 1533 1534 1535 1537 1538 1540 1541 1542 1543 1544 1546 1547 1549 1550 1551 1552 1553 1554 1556 1557 1558 1560 1561 1561 1562 1563 1564 1565 1565 1566 1566 1567 1567 1568 1568 1569 1569 1569 1570 1570 1570
1528 1529 1531 1532 1533 1535 1536 1538 1539 1540 1541 1542 1544 1545 1547 1548 1549 1550 1551 1553 1554 1555 1557 1558 1559 1560 1561 1562 1562 1563 1564 1564 1565 1565 1566 1567 1567 1568 1568 1568 1569 1569 1569
1525 1526 1528 1530 1531 1533 1534 1535 1537 1538 1539 1540 1542 1543 1545 1546 1547 1548 1549 1551 1552 1553 1554 1556 1557 1558 1559 1560 1561 1562 1562 1562 1563 1564 1564 1565 1565 1566 1567 1567 1567 1567 1568
1521 1523 1524 1527 1528 1530 1531 1533 1534 1535 1537 1538 1539 1541 1542 1543 1545 1546 1547 1548 1550 1551 1552 1553 1554 1555 1556 1557 1559 1559 1560 1561 1561 1562 1563 1563 1564 1564 1565 1565 1565 1565 1566
1519 1520 1521 1523 1525 1526 1528 1530 1531 1532 1533 1535 1537 1538 1540 1542 1542 1543 1544 1546 1547 1548 1549 1550 1551 1552 1553 1555 1556 1557 1558 1559 1559 1560 1561 1561 1561 1562 1562 1563 1562 1563 1563
1515 1517 1518 1520 1521 1523 1524 1526 1528 1529 1530 1532 1534 1536 1536 1537 1539 1540 1541 1542 1544 1545 1546 1547 1548 1549 1550 1552 1553 1554 1555 1556 1557 1558 1559 1559 1559 1560 1560 1560 1560 1560 1560
1512 1513 1515 1516 1518 1519 1521 1523 1524 1526 1527 1528 1530 1532 1534 1534 1535 1536 1538 1538 1540 1541 1542 1543 1545 1546 1547 1548 1549 1551 1552 1553 1554 1555 1556 1556 1557 1557 1557 1557 1557 1557 1557
1508 1510 1511 1513 1514 1516 1517 1519 1521 1522 1524 1525 1526 1528 1529 1530 1532 1533 1533 1534 1536 1537 1538 1540 1541 1542 1543 1545 1546 1547 1548 1549 1550 1551 1552 1553 1553 1554 1554 1554 1554 1554 1554
1504 1506 1507 1509 1511 1512 1513 1515 1517 1518 1520 1522 1523 1524 1525 1526 1527 1529 1529 1530 1531 1532 1534 1535 1537 1538 1539 1540 1542 1543 1544 1546 1546 1547 1548 1549 1549 1550 1550 1550 1550 1550 1551
1500 1501 1503 1504 1506 1508 1509 1511 1512 1514 1515 1517 1518 1520 1521 1523 1524 1525 1526 1526 1527 1528 1529 1530 1532 1533 1534 1536 1537 1538 1540 1541 1542 1543 1544 1544 1545 1545 1546 1546 1546 1546 1546
1495 1497 1499 1500 1502 1503 1505 1507 1508 1510 1511 1512 1514 1515 1517 1518 1520 1521 1522 1523 1523 1523 1523 1525 1527 1528 1529 1531 1532 1533 1534 1536 1537 1538 1539 1539 1540 1541 1541 1541 1542 1542 1542
1491 1492 1494 1495 1497 1499 1500 1502 1503 1505 1506 1508 1509 1510 1512 1513 1515 1516 1518 1519 1521 1519 1518 1519 1521 1523 1524 1526 1527 1528 1529 1530 1532 1533 1534 1534 1535 1535 1536 1536 1537 1537 1537
1486 1487 1489 1490 1492 1493 1495 1497 1498 1500 1501 1502 1504 1505 1506 1508 1509 1511 1512 1514 1515 1516 1514 1514 1516 1517 1519 1520 1521 1522 1523 1525 1526 1527 1528 1529 1529 1530 1531 1531 1531 1532 1532
1481 1482 1483 1485 1486 1488 1490 1491 1493 1494 1496 1497 1499 1500 1501 1503 1504 1505 1506 1508 1509 1510 1510 1509 1511 1512 1513 1514 1515 1516 1517 1518 1520 1521 1522 1523 1524 1524 1525 1526 1526 1526 1527
1476 1477 1478 1479 1481 1483 1484 1485 1487 1488 1490 1491 1493 1494 1496 1497 1498 1499 1500 1501 1503 1504 1505 1504 1504 1506 1507 1508 1509 1510 1511 1512 1513 1515 1516 1516 1517 1518 1519 1520 1520 1521 1521
1471 1472 1473 1474 1475 1477 1478 1480 1481 1483 1484 1485 1487 1488 1489 1491 1492 1493 1494 1495 1496 1498 1499 1499 1498 1500 1501 1502 1503 1504 1505 1505 1506 1508 1509 1510 1511 1512 1513 1514 1514 1515 1515
1465 1466 1468 1469 1470 1471 1472 1474 1475 1476 1478 1479 1480 1482 1483 1484 1485 1487 1488 1488 1490 1491 1492 1492 1492 1493 1494 1495 1496 1496 1497 1499 1499 1501 1502 1503 1504 1505 1506 1507 1508 1508 1509
1460 1461 1462 1463 1464 1465 1466 1467 1469 1470 1471 1473 1474 1475 1477 1478 1479 1480 1481 1482 1483 1484 1485 1486 1486 1487 1487 1489 1489 1490 1491 1491 1492 1494 1494 1496 1497 1497 1499 1500 1501 1501 1502
1455 1456 1457 1457 1458 1459 1460 1462 1463 1463 1465 1466 1467 1469 1470 1472 1473 1474 1475 1476 1478 1478 1478 1479 1480 1480 1481 1483 1484 1484 1484 1485 1485 1487 1487 1487 1489 1490 1491 1493 1493 1494 1495
1450 1450 1451 1452 1452 1453 1454 1456 1456 1457 1458 1459 1460 1462 1463 1465 1466 1467 1469 1470 1471 1472 1473 1474 1473 1473 1475 1476 1477 1478 1478 1477 1477 1479 1480 1479 1481 1482 1484 1485 1486 1487 1488
1445 1445 1446 1446 1447 1447 1449 1450 1451 1452 1452 1453 1454 1455 1457 1458 1459 1461 1462 1463 1463 1465 1466 1466 1467 1468 1469 1470 1471 1471 1471 1471 1471 1472 1473 1473 1473 1474 1476 1477 1479 1480 1481
1439 1440 1440 1441 1441 1442 1443 1444 1445 1445 1446 1447 1448 1449 1450 1451 1453 1454 1456 1456 1457 1458 1459 1460 1460 1461 1462 1463 1464 1465 1464 1464 1463 1464 1466 1466 1466 1467 1468 1469 1471 1472 1473
1434 1435 1435 1436 1436 1436 1437 1438 1439 1440 1440 1441 1442 1443 1444 1445 1446 1448 1449 1450 1450 1451 1452 1453 1453 1454 1455 1456 1457 1457 1458 1458 1457 1457 1458 1460 1460 1461 1460 1461 1463 1464 1465